Aérodrome :
LOGIN :

S'inscrire | Disclaimer

   EN    FR    IT 

 










Légende :    VFR   VFR Marginal   IFR   IFR Intensif   IFR Très Intensif
Visi : 
Plafond : 
>= 8 km
>= 3000ft
5 à 8 km
1000 à 3000 ft
1500m à 5 km
500 à 1000 ft
800 à 1500m
200 à 500 ft
< 800m
< 200 ft
Symboles :   Orages  Brouillard  Fortes neiges  Fortes précipitations  Vent > 20 kt
SIGMETs :   Divers  Orages  Givrage  Turbulence  Onde Orograph.  Cendres Volcan.






- Altitude de l'aérodrome : 187 ft


ETNW - Wunstorf AB

DERNIER METAR :
  • 200120Z 29011KT 9999 FEW042 BKN050 04/01 Q1017 BLU

METARs EXPIRÉS :
  • 200020Z 29011KT 9999 FEW050 04/02 Q1017 BLU+
  • 192320Z 31013KT 9999 04/00 Q1017 BLU+

TAF TAF ETNW
Valide du 20 à 00h jusqu'au 21 à 00h UTC


192300Z 2000/2024 29012KT 9000 NSW SCT010 BKN025
TEMPO 2000/2004 30015G25KT 4000 SHRA BKN007 BKN015TCU
TEMPO 2004/2024 31015G30KT 2000 SHSN BKN005 BKN010CB BY ETGL



MET'MAP, la Météo Aéronautique d'un coup d'oeil ! - Copyright ORBIFLY Décembre 2007 - Disclaimer

ORBIFLY MET'MAP TEAM :

Programmation & Développement : Alexandra Zaïnal
Sur une idée originale de : Baudouin d'Aumeries
Assistance à la programmation : Marc-Olivier Méhu
Soutien technique & logistique : Manuel Goepfert

Contact : metmap@orbifly.com




SOURCES & CREDITS :

   NOAA